sat.trackr.live / text

‹ back to catalog

STARLINK-32734

NORAD 62476 · 2024-254Q

PAYLOAD ACTIVE UNKNOWN

§ Identity

Operator
Country
US
Launch date
2024-12-31
Launch site
AFETR
Launch vehicle
Mass (kg)
RCS (m²)

Purposes: comms

External: N2YO · Heavens-Above · Gunter

§ Orbital elements

Epoch: 2026-05-25T03:24:13.737024Z

Period
94.27 min
Inclination
42.9988°
Eccentricity
0.0001233
Mean motion
15.27576873 rev/d
Perigee alt
482.2 km
Apogee alt
483.9 km
Semi-major
6,861.2 km
B*
3.6733e-4
RAAN
304.7562°
Arg perigee
275.1019°
Mean anomaly
84.9691°
Rev number
7,934

§ Raw data

STARLINK-327341 62476U 24254Q   26145.14182566  .00009859  00000+0  36733-3 0  99982 62476  42.9988 304.7562 0001233 275.1019  84.9691 15.27576873 79349

JSON: /api/v1/satellites/62476 · /tle

For live sub-satellite position, see the globe view (requires WebGL).

§ Visibility from observer

Set your observer location to see the next 7 days of passes ≥ 10°. The values pass through the URL so the page stays shareable.

No JS? Fill the form by hand. The geolocation button needs JavaScript.